Zurück zum Katalog

GECAM-B

AktivWissenschaftVLEO
NORAD 47235·PAYLOAD·🇨🇳 China

Gestartet Dec 9, 2020 von Xichang Satellite Launch Center

Loading…

Nächste Überflüge (nächste 24 Stunden)

TLE

VeraltetSource: Space-Track

Epoche: Jun 17, 2026, 05:40 UTC

1 47235U 20094B   26168.23651533  .00002046  00000-0  14016-3 0  9994
2 47235  28.9978  15.0776 0010587 333.3126  26.6927 15.02194018301731

Verfolge GECAM-B in Echtzeit mit AllMySat

Download on the App Store